Weather History for Munising, MI

Change the Weather History Date:

Monday, May 27, 2013

  Actual Average (KISQ) Record (KISQ)
Temperature  
Mean Temperature 53 °F -  
Max Temperature 71 °F 62 °F 80 °F (1959)
Min Temperature 36 °F 44 °F 30 °F (1961)
Degree Days  
Heating Degree Days 12    
Growing Degree Days 3 (Base 50)    
Moisture  
Dew Point 33 °F    
Average Humidity 45    
Maximum Humidity 82    
Minimum Humidity 20    
Precipitation  
Precipitation 0.00 in - - ()
Sea Level Pressure  
Sea Level Pressure 30.13 in    
Wind  
Wind Speed 6 mph (SSE)    
Max Wind Speed 13 mph    
Max Gust Speed 21 mph    
Averages and records for this station are not official NWS values.
T = Trace of Precipitation, MM = Missing Value Source: NWS Daily Summary

Daily Weather History Graph

Daily Weather History Graph

Search for Another Location

Airport:

Trip Planner

Search our weather history database for the weather conditions in past years. The results will help you decide how hot, cold, wet, or windy it might be!

Date:

Astronomy

May. 27, 2013 Rise Set
Actual Time 6:01 AM EDT 9:27 PM EDT
Civil Twilight 5:23 AM EDT 10:04 PM EDT
Nautical Twilight 4:34 AM EDT 10:53 PM EDT
Astronomical Twilight 3:31 AM EDT 11:57 PM EDT
Moon No Moon Rise 8:40 AM EDT (5/27)
Length of Visible Light 16h 40m
Length of Day
15h 26m
Waning Gibbous, 91% of the Moon is Illuminated
May 27
Waning Gibbous
May 31
Last Quarter
Jun 8
New
Jun 16
First Quarter
Jun 23
Full

Hourly Weather History & Observations

Time (EDT) Temp. Windchill Dew Point Humidity Pressure Visibility Wind Dir Wind Speed Gust Speed Precip Events Conditions
12:56 AM 42.1 °F 39.2 °F 33.1 °F 70% 30.24 in - South 4.6 mph - N/A   Unknown
1:56 AM 42.1 °F 37.1 °F 33.1 °F 70% 30.24 in - South 8.1 mph - N/A   Unknown
2:56 AM 39.9 °F 35.8 °F 33.1 °F 77% 30.22 in - South 5.8 mph - N/A   Unknown
3:56 AM 37.9 °F 35.5 °F 32.0 °F 79% 30.21 in - SSW 3.5 mph - N/A   Unknown
4:56 AM 39.0 °F 36.8 °F 30.9 °F 73% 30.22 in - SSW 3.5 mph - N/A   Unknown
5:56 AM 36.0 °F 33.3 °F 30.9 °F 82% 30.21 in - South 3.5 mph - N/A   Unknown
6:56 AM 44.1 °F - 34.0 °F 68% 30.21 in - Calm Calm - N/A   Unknown
7:56 AM 50.0 °F - 35.1 °F 57% 30.21 in - Variable 3.5 mph - N/A   Unknown
8:56 AM 55.0 °F - 37.0 °F 51% 30.20 in - Calm Calm - N/A   Unknown
9:56 AM 60.1 °F - 39.0 °F 46% 30.19 in - SSE 5.8 mph - N/A   Unknown
10:56 AM 64.0 °F - 39.9 °F 41% 30.17 in - SSE 8.1 mph - N/A   Unknown
11:56 AM 66.0 °F - 39.9 °F 38% 30.16 in - SSE 8.1 mph - N/A   Unknown
12:56 PM 68.0 °F - 37.9 °F 33% 30.15 in - SSE 8.1 mph - N/A   Unknown
1:56 PM 69.1 °F - 36.0 °F 30% 30.12 in - South 10.4 mph 19.6 mph N/A   Unknown
2:56 PM 70.0 °F - 34.0 °F 27% 30.11 in - South 10.4 mph 18.4 mph N/A   Unknown
3:56 PM 70.0 °F - 32.0 °F 25% 30.08 in - SSE 11.5 mph 17.3 mph N/A   Unknown
4:56 PM 70.0 °F - 28.0 °F 21% 30.04 in - ESE 11.5 mph 20.7 mph N/A   Unknown
5:56 PM 70.0 °F - 27.0 °F 20% 30.04 in - South 12.7 mph 18.4 mph N/A   Unknown
6:56 PM 69.1 °F - 28.0 °F 22% 30.04 in - SSE 6.9 mph - N/A   Unknown
7:56 PM 68.0 °F - 30.9 °F 25% 30.02 in - SE 3.5 mph - N/A   Unknown
8:56 PM 66.0 °F - 30.9 °F 27% 30.01 in - ESE 5.8 mph - N/A   Unknown
9:56 PM 63.0 °F - 32.0 °F 31% 30.00 in - SE 5.8 mph - N/A   Unknown
10:56 PM 61.0 °F - 30.9 °F 32% 30.00 in - SE 4.6 mph - N/A   Unknown
11:56 PM 59.0 °F - 30.9 °F 35% 29.98 in - ESE 6.9 mph - N/A   Unknown